Time,TemperatureF,DewpointF,PressureIn,WindDirection,WindDirectionDegrees,WindSpeedMPH,WindSpeedGustMPH,Humidity,HourlyPrecipIn,Conditions,Clouds,dailyrainin,SoftwareType,DateUTC
2013-01-11 00:02:00,36.0,35.0,29.70,SE,131,3.0,9.0,98,0.00,,,0.13,,2013-01-11 06:02:00,
2013-01-11 00:12:00,36.0,35.0,29.70,SE,131,3.0,9.0,98,0.00,,,0.13,,2013-01-11 06:12:00,
2013-01-11 00:22:00,37.0,36.0,29.70,ESE,121,7.0,13.0,98,0.00,,,0.13,,2013-01-11 06:22:00,
2013-01-11 00:32:00,37.0,36.0,29.70,ESE,119,3.0,10.0,98,0.00,,,0.13,,2013-01-11 06:32:00,
2013-01-11 00:42:00,37.0,36.0,29.70,ESE,119,3.0,10.0,98,0.00,,,0.13,,2013-01-11 06:42:00,
2013-01-11 00:52:00,37.0,36.0,29.68,ESE,114,7.0,10.0,98,0.00,,,0.13,,2013-01-11 06:52:00,
2013-01-11 01:02:00,37.0,36.0,29.68,ESE,113,3.0,11.0,98,0.00,,,0.13,,2013-01-11 07:02:00,
2013-01-11 01:12:00,37.0,36.0,29.68,ESE,113,4.0,8.0,98,0.00,,,0.13,,2013-01-11 07:12:00,
2013-01-11 01:22:00,37.0,36.0,29.68,ESE,113,4.0,8.0,98,0.00,,,0.13,,2013-01-11 07:22:00,
2013-01-11 01:32:00,36.0,35.0,29.68,ESE,105,2.0,5.0,98,0.00,,,0.13,,2013-01-11 07:32:00,
2013-01-11 01:42:00,36.0,35.0,29.68,ESE,118,4.0,7.0,98,0.00,,,0.13,,2013-01-11 07:42:00,
2013-01-11 01:52:00,36.0,35.0,29.68,ESE,118,4.0,7.0,98,0.00,,,0.13,,2013-01-11 07:52:00,
2013-01-11 02:02:00,37.0,36.0,29.69,ESE,123,4.0,7.0,98,0.00,,,0.13,,2013-01-11 08:02:00,
2013-01-11 02:12:00,36.0,35.0,29.68,SSE,156,0.0,4.0,98,0.00,,,0.13,,2013-01-11 08:12:00,
2013-01-11 02:22:00,36.0,35.0,29.68,SSE,156,0.0,4.0,98,0.00,,,0.13,,2013-01-11 08:22:00,
2013-01-11 02:32:00,36.0,35.0,29.69,West,274,0.0,2.0,98,0.00,,,0.13,,2013-01-11 08:32:00,
2013-01-11 02:42:00,36.0,35.0,29.69,West,274,0.0,2.0,98,0.00,,,0.13,,2013-01-11 08:42:00,
2013-01-11 02:52:00,36.0,35.0,29.68,West,274,0.0,1.0,98,0.00,,,0.13,,2013-01-11 08:52:00,
2013-01-11 03:02:00,36.0,35.0,29.67,West,274,0.0,0.0,98,0.01,,,0.14,,2013-01-11 09:02:00,
2013-01-11 03:12:00,36.0,35.0,29.67,West,274,0.0,0.0,98,0.01,,,0.14,,2013-01-11 09:12:00,
2013-01-11 03:22:00,36.0,35.0,29.66,West,274,0.0,0.0,98,0.01,,,0.14,,2013-01-11 09:22:00,
2013-01-11 03:32:00,36.0,35.0,29.66,West,274,0.0,0.0,98,0.01,,,0.14,,2013-01-11 09:32:00,
2013-01-11 03:42:00,36.0,35.0,29.66,West,274,0.0,0.0,98,0.01,,,0.14,,2013-01-11 09:42:00,
2013-01-11 03:52:00,36.0,35.0,29.65,West,274,0.0,0.0,98,0.01,,,0.14,,2013-01-11 09:52:00,
2013-01-11 04:02:00,36.0,35.0,29.65,West,274,0.0,0.0,98,0.00,,,0.14,,2013-01-11 10:02:00,
2013-01-11 04:12:00,36.0,35.0,29.65,West,274,0.0,0.0,98,0.00,,,0.14,,2013-01-11 10:12:00,
2013-01-11 04:22:00,35.0,34.0,29.66,WSW,242,2.0,3.0,98,0.00,,,0.14,,2013-01-11 10:22:00,
2013-01-11 04:32:00,35.0,34.0,29.65,SW,227,0.0,3.0,98,0.01,,,0.15,,2013-01-11 10:32:00,
2013-01-11 04:42:00,35.0,34.0,29.65,SW,227,0.0,3.0,98,0.01,,,0.15,,2013-01-11 10:42:00,
2013-01-11 04:52:00,35.0,34.0,29.65,SW,227,1.0,3.0,98,0.01,,,0.15,,2013-01-11 10:52:00,
2013-01-11 05:02:00,35.0,34.0,29.65,SSW,213,2.0,4.0,98,0.01,,,0.15,,2013-01-11 11:02:00,
2013-01-11 05:12:00,35.0,34.0,29.65,SSW,213,2.0,4.0,98,0.01,,,0.15,,2013-01-11 11:12:00,
2013-01-11 05:22:00,35.0,34.0,29.65,SSW,201,2.0,3.0,98,0.01,,,0.15,,2013-01-11 11:22:00,
2013-01-11 05:32:00,35.0,34.0,29.65,South,190,3.0,5.0,98,0.01,,,0.15,,2013-01-11 11:32:00,
2013-01-11 05:42:00,35.0,34.0,29.65,South,190,3.0,5.0,98,0.01,,,0.15,,2013-01-11 11:42:00,
2013-01-11 05:53:00,36.0,35.0,29.62,SSE,163,0.0,4.0,98,0.00,,,0.15,,2013-01-11 11:53:00,
2013-01-11 06:03:00,36.0,35.0,29.62,SSE,163,0.0,3.0,98,0.00,,,0.15,,2013-01-11 12:03:00,
2013-01-11 06:12:00,36.0,35.0,29.62,SSE,163,0.0,3.0,98,0.00,,,0.15,,2013-01-11 12:12:00,
2013-01-11 06:22:00,37.0,36.0,29.61,South,188,4.0,9.0,98,0.00,,,0.15,,2013-01-11 12:22:00,
2013-01-11 06:32:00,37.0,36.0,29.61,SSW,198,5.0,8.0,98,0.00,,,0.15,,2013-01-11 12:32:00,
2013-01-11 06:43:00,37.0,36.0,29.61,SSW,198,5.0,8.0,98,0.00,,,0.15,,2013-01-11 12:43:00,
2013-01-11 06:53:00,37.0,36.0,29.60,SE,130,2.0,7.0,98,0.00,,,0.15,,2013-01-11 12:53:00,
2013-01-11 07:02:00,37.0,36.0,29.60,ESE,111,1.0,4.0,98,0.00,,,0.15,,2013-01-11 13:02:00,
2013-01-11 07:12:00,37.0,36.0,29.60,ESE,111,1.0,4.0,98,0.00,,,0.15,,2013-01-11 13:12:00,
2013-01-11 07:22:00,37.0,36.0,29.61,SE,128,0.0,4.0,98,0.00,,,0.15,,2013-01-11 13:22:00,
2013-01-11 07:33:00,36.0,35.0,29.62,South,180,2.0,4.0,98,0.00,,,0.15,,2013-01-11 13:33:00,
2013-01-11 07:42:00,36.0,35.0,29.62,South,180,2.0,4.0,98,0.00,,,0.15,,2013-01-11 13:42:00,
2013-01-11 07:53:00,37.0,36.0,29.63,South,182,2.0,6.0,98,0.00,,,0.15,,2013-01-11 13:53:00,
2013-01-11 08:03:00,37.0,36.0,29.63,South,191,8.0,12.0,98,0.00,,,0.15,,2013-01-11 14:03:00,
2013-01-11 08:12:00,37.0,36.0,29.63,South,191,8.0,12.0,98,0.00,,,0.15,,2013-01-11 14:12:00,
2013-01-11 08:22:00,38.0,37.0,29.63,South,184,10.0,16.0,98,0.00,,,0.15,,2013-01-11 14:22:00,
2013-01-11 08:33:00,38.0,38.0,29.63,South,178,10.0,13.0,99,0.00,,,0.15,,2013-01-11 14:33:00,
2013-01-11 08:42:00,38.0,37.0,29.62,SSE,155,7.0,14.0,98,0.00,,,0.15,,2013-01-11 14:42:00,
2013-01-11 08:53:00,38.0,37.0,29.62,SSE,155,7.0,14.0,98,0.00,,,0.15,,2013-01-11 14:53:00,
2013-01-11 09:03:00,39.0,39.0,29.63,South,173,9.0,13.0,99,0.00,,,0.15,,2013-01-11 15:03:00,
2013-01-11 09:12:00,39.0,38.0,29.62,SSE,167,6.0,9.0,98,0.00,,,0.15,,2013-01-11 15:12:00,
2013-01-11 09:23:00,39.0,38.0,29.62,SSE,167,6.0,9.0,98,0.00,,,0.15,,2013-01-11 15:23:00,
2013-01-11 09:32:00,39.0,39.0,29.63,South,174,7.0,9.0,99,0.00,,,0.15,,2013-01-11 15:32:00,
2013-01-11 09:43:00,39.0,39.0,29.63,South,174,7.0,9.0,99,0.00,,,0.15,,2013-01-11 15:43:00,
2013-01-11 09:53:00,40.0,39.0,29.62,SSE,163,5.0,10.0,98,0.00,,,0.15,,2013-01-11 15:53:00,
2013-01-11 10:02:00,40.0,40.0,29.62,SSE,166,6.0,9.0,99,0.00,,,0.15,,2013-01-11 16:02:00,
2013-01-11 10:12:00,41.0,41.0,29.61,SE,146,6.0,10.0,99,0.00,,,0.15,,2013-01-11 16:12:00,
2013-01-11 10:22:00,41.0,41.0,29.61,SE,146,6.0,10.0,99,0.00,,,0.15,,2013-01-11 16:22:00,
2013-01-11 10:32:00,42.0,42.0,29.61,SE,142,7.0,12.0,99,0.00,,,0.15,,2013-01-11 16:32:00,
2013-01-11 10:42:00,42.0,42.0,29.61,SE,142,7.0,12.0,99,0.00,,,0.15,,2013-01-11 16:42:00,
2013-01-11 10:53:00,42.0,42.0,29.60,SE,124,7.0,11.0,99,0.00,,,0.15,,2013-01-11 16:53:00,
2013-01-11 11:03:00,43.0,43.0,29.60,SE,126,8.0,12.0,99,0.00,,,0.15,,2013-01-11 17:03:00,
2013-01-11 11:12:00,43.0,43.0,29.60,SSE,155,8.0,12.0,99,0.00,,,0.15,,2013-01-11 17:12:00,
2013-01-11 11:22:00,43.0,43.0,29.60,SSE,155,8.0,12.0,99,0.00,,,0.15,,2013-01-11 17:22:00,
2013-01-11 11:33:00,44.0,44.0,29.59,ESE,123,7.0,11.0,99,0.00,,,0.15,,2013-01-11 17:33:00,
2013-01-11 11:43:00,44.0,44.0,29.59,ESE,123,7.0,11.0,99,0.00,,,0.15,,2013-01-11 17:43:00,
2013-01-11 11:53:00,44.0,44.0,29.59,SE,138,5.0,11.0,99,0.00,,,0.15,,2013-01-11 17:53:00,
2013-01-11 12:03:00,44.0,44.0,29.57,ESE,119,8.0,12.0,99,0.00,,,0.15,,2013-01-11 18:03:00,
2013-01-11 12:12:00,44.0,44.0,29.57,ESE,119,8.0,12.0,99,0.00,,,0.15,,2013-01-11 18:12:00,
2013-01-11 12:23:00,45.0,45.0,29.57,SE,133,7.0,12.0,99,0.00,,,0.15,,2013-01-11 18:23:00,
2013-01-11 12:32:00,45.0,45.0,29.54,ESE,111,5.0,8.0,99,0.00,,,0.15,,2013-01-11 18:32:00,
2013-01-11 12:43:00,45.0,45.0,29.54,ESE,111,5.0,8.0,99,0.00,,,0.15,,2013-01-11 18:43:00,
2013-01-11 12:53:00,45.0,45.0,29.54,ESE,120,6.0,9.0,99,0.00,,,0.15,,2013-01-11 18:53:00,
2013-01-11 13:02:00,46.0,46.0,29.53,SE,138,6.0,11.0,99,0.00,,,0.15,,2013-01-11 19:02:00,
2013-01-11 13:12:00,46.0,46.0,29.53,SE,138,6.0,11.0,99,0.00,,,0.15,,2013-01-11 19:12:00,
2013-01-11 13:22:00,46.0,46.0,29.53,ESE,109,8.0,13.0,99,0.00,,,0.15,,2013-01-11 19:22:00,
2013-01-11 13:32:00,46.0,46.0,29.52,SE,128,8.0,14.0,99,0.00,,,0.15,,2013-01-11 19:32:00,
2013-01-11 13:43:00,46.0,46.0,29.52,SE,128,8.0,14.0,99,0.00,,,0.15,,2013-01-11 19:43:00,
2013-01-11 13:53:00,46.0,46.0,29.52,SE,140,8.0,13.0,99,0.00,,,0.15,,2013-01-11 19:53:00,
2013-01-11 14:03:00,45.0,45.0,29.51,SE,136,7.0,12.0,99,0.00,,,0.15,,2013-01-11 20:03:00,
2013-01-11 14:12:00,45.0,45.0,29.51,SE,136,7.0,12.0,99,0.00,,,0.15,,2013-01-11 20:12:00,
2013-01-11 14:22:00,46.0,46.0,29.49,ESE,120,8.0,14.0,99,0.00,,,0.15,,2013-01-11 20:22:00,
2013-01-11 14:33:00,46.0,46.0,29.50,SE,134,9.0,14.0,99,0.00,,,0.15,,2013-01-11 20:33:00,
2013-01-11 14:43:00,46.0,46.0,29.50,SE,134,9.0,14.0,99,0.00,,,0.15,,2013-01-11 20:43:00,
2013-01-11 14:53:00,46.0,46.0,29.50,SE,134,11.0,15.0,99,0.00,,,0.15,,2013-01-11 20:53:00,
2013-01-11 15:03:00,46.0,46.0,29.50,SSE,148,11.0,15.0,99,0.00,,,0.15,,2013-01-11 21:03:00,
2013-01-11 15:12:00,46.0,46.0,29.50,SE,135,10.0,14.0,99,0.00,,,0.15,,2013-01-11 21:12:00,
2013-01-11 15:23:00,46.0,46.0,29.50,SE,135,10.0,14.0,99,0.00,,,0.15,,2013-01-11 21:23:00,
2013-01-11 15:32:00,46.0,46.0,29.50,ESE,123,10.0,17.0,99,0.00,,,0.15,,2013-01-11 21:32:00,
2013-01-11 15:42:00,46.0,46.0,29.50,ESE,123,10.0,17.0,99,0.00,,,0.15,,2013-01-11 21:42:00,
2013-01-11 15:53:00,46.0,46.0,29.50,ESE,123,10.0,17.0,99,0.00,,,0.15,,2013-01-11 21:53:00,
2013-01-11 16:02:00,45.0,45.0,29.50,ESE,121,7.0,11.0,99,0.00,,,0.15,,2013-01-11 22:02:00,
2013-01-11 16:12:00,45.0,44.0,29.50,ESE,110,6.0,8.0,98,0.00,,,0.14,,2013-01-11 22:12:00,
2013-01-11 16:22:00,45.0,44.0,29.50,ESE,110,6.0,8.0,98,0.00,,,0.14,,2013-01-11 22:22:00,
2013-01-11 16:33:00,44.0,43.0,29.50,SE,127,6.0,10.0,98,0.00,,,0.14,,2013-01-11 22:33:00,
2013-01-11 16:42:00,44.0,43.0,29.50,SE,127,6.0,10.0,98,0.00,,,0.14,,2013-01-11 22:42:00,
2013-01-11 16:53:00,44.0,44.0,29.50,ESE,121,6.0,10.0,99,0.00,,,0.14,,2013-01-11 22:53:00,
2013-01-11 17:02:00,44.0,44.0,29.49,ESE,103,6.0,9.0,99,0.00,,,0.14,,2013-01-11 23:02:00,
2013-01-11 17:12:00,44.0,44.0,29.49,ESE,103,6.0,9.0,99,0.00,,,0.14,,2013-01-11 23:12:00,
2013-01-11 17:22:00,44.0,43.0,29.49,ESE,111,8.0,13.0,98,0.00,,,0.10,,2013-01-11 23:22:00,
2013-01-11 17:32:00,44.0,43.0,29.48,ESE,119,6.0,9.0,98,0.00,,,0.10,,2013-01-11 23:32:00,
2013-01-11 17:42:00,44.0,43.0,29.48,ESE,119,6.0,9.0,98,0.00,,,0.10,,2013-01-11 23:42:00,
2013-01-11 17:53:00,43.0,42.0,29.47,ESE,107,7.0,10.0,98,0.00,,,0.10,,2013-01-11 23:53:00,
2013-01-11 18:02:00,43.0,43.0,29.49,ESE,110,8.0,10.0,99,0.00,,,0.10,,2013-01-12 00:02:00,
2013-01-11 18:12:00,42.0,41.0,29.48,ESE,106,6.0,10.0,98,0.00,,,0.08,,2013-01-12 00:12:00,
2013-01-11 18:22:00,42.0,41.0,29.48,ESE,106,6.0,10.0,98,0.00,,,0.08,,2013-01-12 00:22:00,
2013-01-11 18:32:00,43.0,43.0,29.50,SE,134,7.0,9.0,99,0.00,,,0.08,,2013-01-12 00:32:00,
2013-01-11 18:42:00,43.0,43.0,29.50,SE,134,7.0,9.0,99,0.00,,,0.08,,2013-01-12 00:42:00,
2013-01-11 18:53:00,43.0,43.0,29.49,ESE,120,7.0,10.0,99,0.00,,,0.08,,2013-01-12 00:53:00,
2013-01-11 19:02:00,41.0,40.0,29.49,ESE,113,4.0,7.0,98,0.00,,,0.08,,2013-01-12 01:02:00,
2013-01-11 19:12:00,41.0,40.0,29.49,ESE,113,4.0,7.0,98,0.00,,,0.08,,2013-01-12 01:12:00,
2013-01-11 19:22:00,41.0,40.0,29.49,ESE,110,6.0,9.0,98,0.00,,,0.06,,2013-01-12 01:22:00,
2013-01-11 19:32:00,42.0,41.0,29.49,ESE,123,5.0,8.0,98,0.00,,,0.06,,2013-01-12 01:32:00,
2013-01-11 19:42:00,42.0,41.0,29.49,ESE,123,5.0,8.0,98,0.00,,,0.06,,2013-01-12 01:42:00,
2013-01-11 19:52:00,42.0,42.0,29.49,SE,125,7.0,10.0,99,0.00,,,0.06,,2013-01-12 01:52:00,
2013-01-11 20:02:00,43.0,43.0,29.48,SE,138,10.0,15.0,99,0.00,,,0.06,,2013-01-12 02:02:00,
2013-01-11 20:12:00,43.0,43.0,29.48,SE,138,10.0,15.0,99,0.00,,,0.06,,2013-01-12 02:12:00,
2013-01-11 20:22:00,44.0,43.0,29.48,SE,124,10.0,14.0,98,0.00,,,0.04,,2013-01-12 02:22:00,
2013-01-11 20:32:00,44.0,43.0,29.48,SSE,148,10.0,14.0,98,0.00,,,0.04,,2013-01-12 02:32:00,
2013-01-11 20:42:00,44.0,43.0,29.48,SSE,148,10.0,14.0,98,0.00,,,0.04,,2013-01-12 02:42:00,
2013-01-11 20:53:00,44.0,43.0,29.48,SSE,159,8.0,15.0,97,0.00,,,0.04,,2013-01-12 02:53:00,
2013-01-11 21:02:00,44.0,43.0,29.48,SSE,167,9.0,15.0,97,0.00,,,0.04,,2013-01-12 03:02:00,
2013-01-11 21:12:00,44.0,43.0,29.48,SSE,167,9.0,15.0,97,0.00,,,0.04,,2013-01-12 03:12:00,
2013-01-11 21:22:00,44.0,43.0,29.49,South,178,11.0,13.0,96,0.00,,,0.03,,2013-01-12 03:22:00,
2013-01-11 21:32:00,44.0,43.0,29.49,South,174,12.0,16.0,96,0.00,,,0.03,,2013-01-12 03:32:00,
2013-01-11 21:43:00,44.0,43.0,29.49,South,174,12.0,16.0,96,0.00,,,0.03,,2013-01-12 03:43:00,
2013-01-11 21:53:00,45.0,44.0,29.49,South,171,11.0,15.0,95,0.00,,,0.03,,2013-01-12 03:53:00,
2013-01-11 22:02:00,44.0,42.0,29.48,South,171,11.0,14.0,94,0.00,,,0.03,,2013-01-12 04:02:00,
2013-01-11 22:12:00,44.0,42.0,29.48,South,171,11.0,14.0,94,0.00,,,0.03,,2013-01-12 04:12:00,
2013-01-11 22:22:00,44.0,42.0,29.48,SE,135,11.0,17.0,94,0.00,,,0.02,,2013-01-12 04:22:00,
2013-01-11 22:32:00,45.0,43.0,29.49,SSE,164,9.0,13.0,93,0.00,,,0.02,,2013-01-12 04:32:00,
2013-01-11 22:42:00,45.0,43.0,29.49,SSE,164,9.0,13.0,93,0.00,,,0.02,,2013-01-12 04:42:00,
2013-01-11 22:52:00,44.0,42.0,29.49,SSE,163,8.0,13.0,93,0.00,,,0.02,,2013-01-12 04:52:00,
2013-01-11 23:03:00,45.0,43.0,29.49,South,173,10.0,15.0,94,0.00,,,0.02,,2013-01-12 05:03:00,
2013-01-11 23:12:00,45.0,43.0,29.49,South,173,10.0,15.0,94,0.00,,,0.02,,2013-01-12 05:12:00,
2013-01-11 23:22:00,45.0,43.0,29.49,South,171,12.0,15.0,92,0.00,,,0.02,,2013-01-12 05:22:00,
2013-01-11 23:32:00,46.0,44.0,29.49,South,169,11.0,15.0,91,0.00,,,0.02,,2013-01-12 05:32:00,
2013-01-11 23:42:00,46.0,44.0,29.49,South,169,11.0,15.0,91,0.00,,,0.02,,2013-01-12 05:42:00,
2013-01-11 23:52:00,45.0,43.0,29.49,South,178,10.0,15.0,91,0.00,,,0.02,,2013-01-12 05:52:00,